Regional Weather Roundup
Issued by NWS Kansas City/Pleasant Hill, MO

Home | Current Version | Previous Version | Graphics & Text | Print | Product List | Glossary Off
Versions: 1 2 3 4 5 6 7 8 9 10 11 12 13 14 15 16 17 18 19 20 21 22 23 24 25 26 27

000
ASUS43 KEAX 151510
RWREAX

WEATHER ROUNDUP FOR EASTERN KANSAS AND NORTHWEST MISSOURI
NATIONAL WEATHER SERVICE KANSAS CITY/PLEASANT HILL MO
900 AM CST FRI DEC 15 2017

KSZ040-057-103>105-MOZ028-029-037-043-151600-
...KANSAS CITY METROPOLITAN AREA...

CITY           SKY/WX    TMP DP  RH WIND       PRES   REMARKS
K.C. INTL      MOSUNNY   33  29  85 SW6       30.14R WCI  28
K.C. DOWNTOWN  MOSUNNY   35  28  75 W3        30.16R
LEES SUMMIT    MOSUNNY   34  31  88 W7        30.16R WCI  28
OLATHE - IXD   PTSUNNY   33  30  88 W8        30.17R WCI  26
OLATHE - OJC   PTSUNNY   34  31  88 W7        30.15R WCI  28
LAWRENCE       SUNNY     34  30  85 CALM      30.16S

$$

MOZ001>008-011>017-020>025-030>033-038>040-044>046-053-054-151600-
...NORTHERN AND CENTRAL MISSOURI...

CITY           SKY/WX    TMP DP  RH WIND       PRES   REMARKS
ST. JOSEPH     PTSUNNY   33  29  85 W8        30.14S WCI  26
MOSBY            N/A     34  28  80 CALM      30.16S
WARRENSBURG    SUNNY     34  30  86 W6        30.16R WCI  29
WHITEMAN AFB   MOSUNNY   35  28  73 NW7       30.11R WCI  30
CLINTON        SUNNY     36  32  87 W5        30.16S WCI  32
SEDALIA        SUNNY     36  30  79 NW9       30.15R WCI  29
WARSAW         NOT AVBL
CHILLICOTHE      N/A     34  24  67 SW5       30.12F WCI  30
KIRKSVILLE     PTSUNNY   33  25  72 W9        30.08S WCI  25

$$

MOZ041-047>049-056>058-063>065-088>090-097-151600-
...EASTERN AND SOUTHERN MISSOURI...

CITY           SKY/WX    TMP DP  RH WIND       PRES   REMARKS
ST. LOUIS INTL CLOUDY    34  25  69 W10       30.10R WCI  26
SPIRIT OF STL  CLOUDY    34  25  69 SW6       30.10S WCI  29
COLUMBIA       SUNNY     35  26  69 NW10      30.11R WCI  27
JEFFERSON CITY SUNNY     33  26  75 NW6       30.14R WCI  28
ROLLA          SUNNY     34  25  69 W9        30.11R WCI  27
OSAGE BEACH    MOSUNNY   35  27  72 W7        30.15R WCI  29
SPRINGFIELD    SUNNY     36  28  73 W9        30.15R WCI  29
BRANSON        MOSUNNY   36  27  69 CALM      30.19R
JOPLIN         SUNNY     35  33  92 W7        30.21R WCI  29
WEST PLAINS    CLOUDY    33  25  72 W6        30.16R WCI  28

$$

IAZ060-094-KSZ022-034>040-054-083-096-NEZ052-066-093-151600-
...KANSAS...SOUTHEAST NEBRASKA AND IOWA...

CITY           SKY/WX    TMP DP  RH WIND       PRES   REMARKS
TOPEKA         SUNNY     34  31  88 W5        30.16S WCI  30
MANHATTAN      SUNNY     30  24  78 SW8       30.17S WCI  22
EMPORIA        SUNNY     30  26  85 W6        30.18S WCI  24
CHANUTE        SUNNY     34  30  85 W7        30.20S WCI  28
WICHITA        MOSUNNY   32  27  81 W7        30.21S WCI  26
LINCOLN        SUNNY     30  22  72 SW7       30.08F WCI  23
FALLS CITY     SUNNY     32  25  75 W12       30.12R WCI  23
LAMONI         CLOUDY    33  21  61 W13       30.04F WCI  24
DES MOINES     CLOUDY    33  24  69 SW9       30.00F WCI  25

$$





USA.gov is the U.S. government's official web portal to all federal, state and local government web resources and services.